Other Public Products
Issued by NWS Grand Forks, ND

Home | Current Version | Previous Version | Graphics & Text | Print | Product List | Glossary On
Versions: 1 2 3 4 5 6 7 8 9 10 11 12 13 14 15 16 17 18 19 20 21 22 23 24 25 26 27 28 29 30 31 32 33 34 35 36 37 38 39 40 41 42 43 44 45 46 47 48 49 50
000
FPUS83 KFGF 160510
OPUFGF
PRAIRIE TO PINES WEATHER ROUNDUP
NATIONAL WEATHER SERVICE EASTERN NORTH DAKOTA/GRAND FORKS ND
1100 PM CST FRI DEC 15 2017

 **SATELLITE DATA USED TO AUGMENT SKY COVER AT AUTOMATED STATIONS**
 *****  WEATHER ACROSS EASTERN NORTH DAKOTA  *****

CITY           SKY/WX    TMP DP  RH WIND       PRES   REMARKS
GRAND FORKS    LGT SNOW  21  19  92 E13       29.61S FOG     WCI   9
GRND FORKS AFB CLOUDY    21  19  93 SE10      29.60S WCI  10
GRND FORKS NWS   N/A     21 N/A N/A E7          N/A  WCI  13
BUXTON         NOT AVBL
DEVILS LAKE    CLOUDY    25  23  92 E8        29.57R WCI  16
FARGO          CLOUDY    30  27  88 E9        29.58S WCI  22
WAHPETON ARPT  MOCLDY    30  28  93 SE8       29.58S WCI  23
$$

 *****  WEATHER ACROSS CENTRAL AND WESTERN NORTH DAKOTA  *****

CITY           SKY/WX    TMP DP  RH WIND       PRES   REMARKS
JAMESTOWN      MOCLDY    30  28  92 W6        29.53R WCI  24
BISMARCK       CLOUDY    41  33  73 NW9       29.59R
MINOT          LGT RAIN  40  35  83 W10       29.55R
MINOT AFB      MOCLDY    38  35  88 NW10      29.54R
GARRISON         N/A     38  32  79 NW13      29.57R
WILLISTON      LGT RAIN  37  34  87 NW7       29.64R
DICKINSON      MOCLDY    31  22  69 W7        29.60R WCI  24
HETTINGER      FAIR      31  19  61 NW8       29.65R WCI  23
$$

 *****  OTHER OBSERVATIONS NORTHEAST NORTH DAKOTA  *****

CITY           SKY/WX    TMP DP  RH WIND       PRES   REMARKS
WALHALLA       FAIR      16  16 100 E12       29.65R WCI   3
LANGDON        CLOUDY    18  18 100 E15       29.57R WCI   3
CAVALIER       CLOUDY    16  14  93 E10G17    29.64S WCI   3
GRAFTON        CLOUDY    18  16  93 E16       29.64F WCI   3
CANDO          CLOUDY    21  23 100 E9        29.58R WCI  11
FORT TOTTEN      N/A     26  26 100 E2        29.95S
ROLLA          CLOUDY    23  23 100 SE8       29.54S WCI  14
RUGBY          CLOUDY    27  27 100 E5        29.54R FOG     WCI  21
 ***** THE ABOVE OBSERVATIONS ARE NON NWS ARE NOT QUALITY
        CONTROLLED AND MAY MIS-REPORT RAIN FOR SNOW...
$$

 *****  OTHER OBSERVATIONS SOUTHEAST NORTH DAKOTA *****

CITY           SKY/WX    TMP DP  RH WIND       PRES   REMARKS
COOPERSTOWN    FOG       27  27 100 SE10      29.54F VSB 3/4 WCI  17
VALLEY CITY    CLOUDY    28  28 100 E5        29.55S FOG     WCI  23
OAKES            N/A     32  30  93 SW6       29.55R
GWINNER          N/A     30  30 100 CALM      29.55R
SHEYENNE NWR     N/A     29  29 100 SE7       29.95S WCI  22
BUFFALO        NOT AVBL
WYNDMERE       NOT AVBL
 ***** THE ABOVE OBSERVATIONS ARE NON NWS ARE NOT QUALITY
       CONTROLLED AND MAY MIS-REPORT RAIN FOR SNOW...
$$

  *****  WEATHER ACROSS NORTHERN MINNESOTA  *****

CITY           SKY/WX    TMP DP  RH WIND       PRES   REMARKS
FLAG ISLAND    CLOUDY     3  -2  78 E10       29.75F WCI -12
WARROAD        LGT SNOW   9   5  85 E12       29.73S WCI  -6
ROSEAU         LGT SNOW  12   7  79 E14       29.70F WCI  -3
HALLOCK        LGT SNOW  18  14  86 E16       29.65S WCI   3
THF RVR FALLS  LGT SNOW  16  13  88 E15       29.65S FOG     WCI   1
HALSTAD        NOT AVBL
FOSSTON        LGT SNOW  18  14  86 E7        29.64R WCI   8
BAUDETTE       CLOUDY     7   3  84 E13       29.74R WCI  -9
WASKISH        LGT SNOW  12  10  92 E7        29.70F WCI   2
CROOKSTON      LGT SNOW  19  18  93 E12       29.63F WCI   7
$$
  *****  WEATHER ACROSS CENTRAL AND WEST MINNESOTA  *****

CITY           SKY/WX    TMP DP  RH WIND       PRES   REMARKS
BEMIDJI        LGT SNOW  15  13  90 E8        29.65F WCI   5
PARK RAPIDS    LGT SNOW  19  15  84 E9        29.62F FOG     WCI   8
WADENA         LGT SNOW  21  19  93 E7        29.61S WCI  13
DETROIT LAKES  LGT SNOW  25  23  93 E6        29.61R WCI  18
MOORHEAD       CLOUDY    28  25  86 CALM      29.59S
FERGUS FALLS   CLOUDY    28  27  93 SE9       29.61S WCI  20
ELBOW LAKE     CLOUDY    29  28  94 SE8       29.59R FOG     WCI  21
MORRIS MN      FAIR      28  28 100 SE9       29.58R WCI  20
STAPLES        LGT SNOW  19  18  93 E6        29.63F WCI  11
WHEATON        FAIR      28  27  93 SE9       29.58F WCI  20
$$
  *****  WEATHER ELSEWHERE ACROSS MINNESOTA  *****

CITY           SKY/WX    TMP DP  RH WIND       PRES   REMARKS
DULUTH         LGT SNOW  14  10  84 E6        29.72S FOG     WCI   5
INTRNTL FALLS  FAIR       4  -1  80 E6        29.76S WCI  -7
ELY            FAIR      -2  -8  78 CALM      29.75S
CLOQUET        LGT SNOW  14  10  85 E3        29.73R
BRAINERD       LGT SNOW  20  16  84 E6        29.67S FOG     WCI  12
HIBBING        CLOUDY    11   5  77 E5        29.72S WCI   3
ALEXANDRIA     CLOUDY    27  26  96 SE10      29.60F WCI  17
SAINT CLOUD    CLOUDY    23  21  92 E7        29.65F WCI  15
MINNEAPOLIS    CLOUDY    29  28  96 SE8       29.68F FOG     WCI  21
$$

  *****  WEATHER ACROSS SOUTH DAKOTA  *****

CITY           SKY/WX    TMP DP  RH WIND       PRES   REMARKS
SIOUX FALLS    MOCLDY    38  28  67 VRB3      29.63R
BROOKINGS      FAIR      35  27  72 SW9       29.59S
WATERTOWN      MOCLDY    32  29  88 SW9       29.56S WCI  24
HURON          FAIR      35  28  75 W6        29.59F
SISSETON         N/A     32  30  92 SE7       29.54F
ABERDEEN       MOCLDY    31  26  82 SW5       29.57R
MITCHELL       FAIR      41  29  62 W12       29.63R
PIERRE         FAIR      42  24  49 W10       29.62R
MOBRIDGE       FAIR      39  24  55 NW12      29.58R
RAPID CITY     FAIR      37  15  40 NW3       29.68R
$$

  *****  SOME WEATHER IN NEARBY STATES *****

CITY           SKY/WX    TMP DP  RH WIND       PRES   REMARKS
GLASGOW MT     CLOUDY    35  33  92 NW15      29.74R
GREAT FALLS MT MOCLDY    33  26  75 NE8       29.87R
CHEYENNE WY    FAIR      47   3  16 W22       29.82S
SCOTTSBLUFF NE FAIR      45   8  22 NW9       29.75F
OMAHA NE       FAIR      33  23  66 SE12      29.75F WCI  24
DES MOINES IA  FAIR      37  23  56 SW13      29.77F
DAVENPORT IA   CLOUDY    35  21  56 S13       29.88S
CHICAGO IL     CLOUDY    37  21  52 SW13G21   29.87F
EAU CLAIRE WI  LGT SNOW  22  20  92 E5        29.75S FOG     WCI  16
LA CROSSE WI   CLOUDY    31  29  92 SE6       29.76F
$$

  *****  SOME NATIONAL WEATHER *****

CITY           SKY/WX    TMP DP  RH WIND       PRES   REMARKS
LA GUARDIA NY  FAIR      25  18  74 W15       29.90F WCI  13
RALEIGH NC     FAIR      31  23  72 W3        30.13R
ATLANTA GA     FAIR      30  24  78 W8        30.21R WCI  22
NEW ORLEANS LA CLOUDY    47  35  63 N10       30.28R
OKLAHOMA CITY  FAIR      37  22  54 S10       30.08F
ALBUQUERQUE NM FAIR      29  11  47 SE6       30.12F WCI  23
SALT LAKE CITY CLOUDY    34  29  82 SE5       29.98F
LOS ANGELES CA FAIR      63  46  54 S5        29.97S
BOISE ID       LGT SNOW  27  25  92 NW7       30.11F FOG     WCI  19
SEATTLE WA     MOCLDY    42  41  96 S5        30.24R FOG
$$

*** WEATHER ACROSS MANITOBA...SASKATCHEWAN AND ONTARIO ***
                ***ONTARIO***

CITY           SKY/WX    TMP DP  RH WIND       PRES   REMARKS
GERALDTON      PTCLDY   -18 -24  76 NW6       29.86R WCI -33
THUNDER BAY    PTCLDY    -4  -8  84 N5        29.90R WCI -15
SIOUX LOOKOUT  FLURRIES -11 -17  77 VRB2      29.85R
TORONTO        PTCLDY    23  14  68 W18G25    29.79R WCI   9
BIG TROUT LK   CLOUDY   -13 -18  77 NW7       29.92R WCI -29
PICKLE LAKE    NOT AVBL
DRYDEN         PTCLDY   -13 -17  84 NE9       29.80S WCI -31
KENORA         CLOUDY    -8 -11  84 E10       29.77R WCI -26
$$
                *** MANITOBA***

CITY           SKY/WX    TMP DP  RH WIND       PRES   REMARKS
BRANDON        FLURRIES  14  10  85 E17       29.60R WCI  -3
DAUPHIN        CLOUDY    12   9  85 SE17      29.62S WCI  -5
ISLAND LAKE    NOT AVBL
PILOT MOUND      N/A     18  14  86 E15         N/A  WCI   3
THE PAS        LGT SNOW   3  -2  78 SE12G18   29.66R VSB 1   WCI -13
THOMPSON       NOT AVBL
WINNIPEG       LGT SNOW  10   7  85 E13       29.71R DRFTSNOWWCI  -5
LYNN LAKE      CLOUDY   -15 -18  84 SE7       29.73R WCI -31
CHURCHILL      FLURRIES -20 -26  76 W7        29.98R WCI -37
GILLAM         CLEAR    -27 -33  75 CALM      29.95R
$$
                ***SASKATCHEWAN***

CITY           SKY/WX    TMP DP  RH WIND       PRES   REMARKS
ESTEVAN        CLOUDY    37  32  81 W16G23    29.58R
KINDERSLEY     CLEAR     28  21  74 NW10G17   29.73R WCI  19
LLOYDMINSTER   CLEAR     28  23  80 W14       29.67R WCI  17
PRINCE ALBERT  FLURRIES  21  19  93 E2        29.57R
REGINA         MOCLDY    36  30  80 NW14      29.59R
YORKTON        LGT SNOW  21  19  93 SE7       29.51R W



USA.gov is the U.S. government's official web portal to all federal, state and local government web resources and services.